Location: El Águila
(10.4167°N, 66.7167°W)
Time: 05:43:47
(UTC+00:00)

In-Cosmos 22 - Pass Details

Date: 02 October 2022
Orbit: 785 x 876 km, 81.2° (Epoch: 26 November)

Event Time Altitude Azimuth Distance (km) Brightness Sun altitude
Rises 22:40:14 0° 352° (N) 3,265 7.3 -6.6°
Reaches altitude 10° 22:42:35 10° 352° (N) 2,341 6.6 -7.2°
Maximum altitude 22:47:51 80° 265° (W) 807 4.2 -8.5°
Drops below altitude 10° 22:53:12 10° 178° (S) 2,379 6.6 -9.8°
Sets 22:55:36 0° 177° (S) 3,323 7.3 -10.4°
